This is the latest recevied weather packets stored in our database for station/object ON8GE-13. If no packets are shown the sender has not sent any weather packets the latest 10 day(s).
| Time | Temp. | Humidity | Pressure | Rain* | Wind** | Luminosity | Snow |
|---|---|---|---|---|---|---|---|
| 1777861855 | 10.56° C | 10% | 1012.9 hPa | 0 mm | - | - | - |
| 1777860056 | 11.11° C | 10% | 1012.8 hPa | 0 mm | - | - | - |
| 1777858856 | 11.11° C | 10% | 1012.6 hPa | 0 mm | - | - | - |
| 1777858257 | 11.67° C | 10% | 1012.6 hPa | 0 mm | - | - | - |
| 1777855855 | 11.67° C | 10% | 1012.3 hPa | 0 mm | - | - | - |
| 1777855255 | 12.22° C | 10% | 1012.4 hPa | 0 mm | - | - | - |
| 1777853457 | 12.22° C | 10% | 1012.7 hPa | 0 mm | - | - | - |
| 1777852266 | 12.22° C | 10% | 1012.7 hPa | 0 mm | - | - | - |
| 1777849861 | 12.78° C | 10% | 1012.9 hPa | 0.25 mm | - | - | - |
| 1777847469 | 13.33° C | 10% | 1013 hPa | 0.76 mm | - | - | - |
| 1777842670 | 13.33° C | 10% | 1012.9 hPa | 1.02 mm | - | - | - |
| 1777841470 | 13.33° C | 10% | 1012.9 hPa | 0.51 mm | - | - | - |
| 1777840271 | 13.33° C | 10% | 1012.8 hPa | 0.51 mm | - | - | - |
| 1777836669 | 12.78° C | 10% | 1012.6 hPa | 0.51 mm | - | - | - |
| 1777827060 | 13.89° C | 98% | 1011.9 hPa | 0.51 mm | - | 12 W/m² | - |
| 1777824662 | 13.89° C | 97% | 1011.9 hPa | 0.25 mm | - | 50 W/m² | - |
| 1777820463 | 15° C | 95% | 1012 hPa | 0 mm | - | 174 W/m² | - |
| 1777819260 | 15° C | 95% | 1012 hPa | 0 mm | - | 168 W/m² | - |
| 1777818058 | 15° C | 96% | 1012.1 hPa | 0.51 mm | - | 216 W/m² | - |
| 1777816861 | 14.44° C | 98% | 1012.2 hPa | 1.52 mm | - | 210 W/m² | - |
| 1777813863 | 13.89° C | 98% | 1012.7 hPa | 1.27 mm | - | 176 W/m² | - |
| 1777803059 | 14.44° C | 98% | 1012.8 hPa | 2.29 mm | - | 164 W/m² | - |
| 1777797660 | 15° C | 89% | 1012.7 hPa | 0.25 mm | - | 180 W/m² | - |
| 1777797056 | 15° C | 87% | 1012.7 hPa | 0 mm | - | 160 W/m² | - |
| 1777790456 | 15° C | 85% | 1012 hPa | 0 mm | - | 70 W/m² | - |
* Rain latest hour (hover to see other rain measurements)
** Current wind speed in m/s (hover to see current wind gust speed)